Location: Lamoine Observatory
(44.4551°N, 68.3470°W)
Time: 15:55:12
(UTC-04:00)

Daily predictions for brighter satellites

Satellite Brightness Start Highest point End
(mag) Time Altitude Azimuth Time Altitude Azimuth Time Altitude Azimuth
Cosmos 1745 Rocket 4.3 18:50:53 10° SSW 18:57:08 77° W 19:03:29 10° N
Cosmos 371 Rocket 3.6 18:56:07 10° S 19:00:45 46° ESE 19:05:25 10° NNE
NOSS 3-1 (C) 4.5 18:57:11 10° NNW 19:04:14 46° NE 19:12:05 10° ESE
SKYMED 2 4.3 19:01:30 10° N 19:05:49 61° WNW 19:10:05 10° SSW
Thor Agena Rocket 3.6 19:04:07 10° NNE 19:09:23 65° ESE 19:14:33 10° S
Cosmos 2058 Rocket 3.8 19:07:32 10° SSE 19:11:21 31° E 19:15:12 10° NNE
Cosmos 1953 Rocket 3.7 19:08:44 10° N 19:13:00 52° ENE 19:17:13 10° SSE
HJ-1C 3.9 19:11:00 10° SE 19:14:08 39° ENE 19:17:18 10° N
Cosmos 1570 Rocket 4.3 19:09:09 10° SSW 19:14:21 72° WNW 19:19:37 10° NNE
Cosmos 1606 Rocket 3.6 19:10:22 10° S 19:14:37 56° E 19:18:52 10° NNE
EP 1 4.1 19:13:45 10° SW 19:16:23 85° SE 19:19:00 10° NE
Cosmos 2228 3.7 19:12:43 10° SSE 19:16:36 32° E 19:20:30 10° NNE
Cosmos 1763 Rocket 4.0 19:12:23 10° SSE 19:16:56 34° ESE 19:21:34 10° NE
Cosmos 2208 Rocket 4.3 19:11:33 10° SSW 19:17:00 77° WNW 19:22:29 10° NNE
Meteor 2-5 Rocket 4.0 19:14:17 10° N 19:20:04 52° ENE 19:25:42 10° SSE
Cosmos 1943 Rocket 2.2 19:21:38 10° NNW 19:27:14 87° WSW 19:32:51 10° SSE
Cosmos 2181 Rocket 3.9 19:23:16 10° N 19:29:32 81° E 19:35:41 10° S
Cosmos 1825 Rocket 4.0 19:29:02 10° NNW 19:33:25 67° W 19:37:48 10° S
Meteor 2-13 Rocket 4.4 19:27:51 10° S 19:33:51 62° E 19:39:51 10° NNE
Spot 2 Rocket 3.9 19:32:56 10° SE 19:37:37 41° ENE 19:42:20 10° N
TIMED 4.4 19:33:39 10° NNW 19:38:02 74° ENE 19:42:23 10° SSE
H-2A R/B 2.8 19:34:57 10° S 19:38:39 78° WSW 19:42:24 10° NNW
Cosmos 1939 Rocket 4.0 19:43:33 21° E 19:44:37 23° ENE 19:47:46 10° NNE
Cosmos 1898 Rocket 4.1 19:40:34 10° NNW 19:45:40 59° WSW 19:50:44 10° S
Cosmos 1766 3.9 19:43:10 10° SSE 19:46:44 33° E 19:50:17 10° NNE
COSMOS 2406 3.9 19:43:32 10° SSE 19:48:24 30° ESE 19:53:18 10° NE
USA 81 4.1 19:43:18 10° N 19:48:37 87° W 19:53:54 10° S
Cosmos 1814 Rocket 3.9 19:46:54 10° SSW 19:52:04 84° ESE 19:57:14 10° NNE
Cosmos 2074 Rocket 4.0 19:46:33 10° S 19:52:38 61° E 19:58:44 10° NNE
Cosmos 304 Rocket 3.9 19:49:30 10° S 19:54:06 49° ESE 19:58:44 10° NNE
Cosmos 1707 3.4 19:52:18 10° NNW 19:56:11 58° W 20:00:02 10° S
Cosmos 1125 Rocket 4.2 19:51:18 10° N 19:56:12 36° ENE 19:58:30 25° ESE
Cosmos 2150 Rocket 4.4 19:55:41 10° NNW 20:00:58 68° WSW 20:06:19 10° S
Cosmos 2369 Rocket 4.2 19:56:59 10° NW 20:01:42 28° WSW 20:06:23 10° SSW
Cosmos 990 Rocket 4.3 19:56:42 10° NNW 20:01:51 66° WSW 20:06:55 10° S
Cosmos 1340 Rocket 4.4 19:59:45 10° NNW 20:03:30 37° W 20:07:15 10° SSW
SL-08 ROCKET BODY 4.5 19:57:55 10° S 20:03:46 80° W 20:09:45 10° N
Resurs 1-3 3.5 20:03:09 14° SSE 20:06:52 80° ENE 20:11:16 10° N
Cosmos 1356 Rocket 3.5 20:05:06 10° NNW 20:09:25 86° W 20:13:05 14° S
Envisat 2.9 20:05:29 16° SSE 20:09:32 71° ENE 20:14:36 10° N
Cosmos 1656 Rocket 3.6 20:04:20 10° NNW 20:10:01 89° WSW 20:14:09 19° SSE
Helios 1A 4.2 20:11:02 25° ENE 20:11:02 25° ENE 20:14:18 10° N
Lacrosse 5 4.3 20:07:46 10° W 20:11:07 18° WSW 20:14:26 10° SSW
ERS-1 Rocket 4.3 20:11:21 22° ENE 20:11:34 22° ENE 20:15:20 10° NNE
BREEZE M DEB (TANK) 3.2 20:05:04 10° WNW 20:11:54 63° SW 20:12:59 38° SSE
SJ-11-01 4.5 20:13:10 35° SE 20:14:47 50° ENE 20:19:21 10° N
Nadezhda 3 Rocket 4.1 20:11:17 10° N 20:17:29 53° ENE 20:20:40 28° SE
Cosmos 372 Rocket 4.2 20:14:51 10° NNW 20:19:58 50° ENE 20:21:25 39° ESE
Resurs 01 Rocket 1.9 20:16:42 13° S 20:20:41 69° WSW 20:25:06 10° NNW
BREEZE-M DEB (TANK) 4.1 20:18:56 10° WNW 20:23:05 61° NNE 20:31:44 22° E
USA 186 2.4 20:25:28 43° WNW 20:25:28 43° WNW 20:27:28 10° NNW
Cosmos 2184 Rocket 4.1 20:19:26 10° S 20:25:44 80° W 20:32:08 10° N
Cosmos 1805 3.6 20:27:11 47° NE 20:27:11 47° NE 20:30:17 10° NNE
In-Cosmos 22 4.2 20:20:53 10° N 20:26:34 87° W 20:31:00 18° S
GP-B 3.0 20:25:17 10° N 20:29:45 83° E 20:31:49 32° S
Cosmos 1674 4.0 20:26:20 10° N 20:28:28 27° NNE 20:28:28 27° NNE
FALCON 9 R/B 3.2 20:29:01 10° SW 20:32:36 32° SSE 20:33:19 31° SSE
Cosmos 1953 4.3 20:37:03 18° NNE 20:37:03 18° NNE 20:38:14 10° NNE
Cosmos 1610 Rocket 4.4 20:28:49 10° S 20:35:10 86° E 20:41:36 10° N
ATLAS 2AS CENTAUR R/B 4.0 20:27:59 10° NNW 20:35:12 34° NNE 20:38:19 26° ENE
Cosmos 841 Rocket 3.9 20:30:25 10° SSW 20:35:31 64° WNW 20:40:39 10° NNE
Meteor 1-24 Rocket 4.3 20:32:10 10° NNW 20:38:04 60° W 20:43:49 10° S
YAOGAN 6 3.2 20:44:48 48° N 20:44:48 48° N 20:47:30 10° N
NOSS 3-1 (A) 4.1 20:37:03 10° NW 20:44:39 79° SW 20:48:54 33° SSE
BREEZE-M DEB (TANK) 4.5 20:47:25 10° WNW 20:47:46 13° NW 20:47:46 13° NW
Cosmos 1812 Rocket 3.6 20:48:56 44° SSW 20:50:17 77° W 20:54:47 10° N
Cosmos 1544 4.1 20:49:31 33° SW 20:50:37 45° WNW 20:54:07 10° N
Cosmos 1295 Rocket 4.4 20:52:56 57° ESE 20:53:22 58° E 20:59:19 10° NNE
Cosmos 2084 4.0 20:49:44 10° SW 20:53:40 50° NW 20:54:36 40° N
SL-8 Rocket 4.5 20:58:07 41° ENE 20:58:07 41° ENE 21:02:46 10° NNE
Okean 3 Rocket 4.2 20:56:58 10° N 21:00:17 47° NNE 21:00:17 47° NNE
ATLAS CENTAUR R/B 4.1 20:52:25 10° NW 21:03:15 37° WSW 21:05:46 25° SSW
GEOS 3 Rocket 3.8 20:59:02 10° NE 21:04:25 74° NW 21:09:47 10° SW
Cosmos 540 Rocket 3.7 21:02:43 10° SSW 21:07:47 65° WNW 21:12:53 10° NNE
USA 267 4.4 21:08:23 25° NE 21:10:57 34° NNE 21:16:40 10° NW
Cosmos 962 Rocket 4.5 21:11:22 41° SSW 21:13:50 85° W 21:20:15 10° N
Cosmos 1980 Rocket 3.9 21:11:20 10° N 21:14:44 20° NE 21:14:44 20° NE
Cosmos 1697 Rocket 3.9 21:11:15 10° N 21:15:21 30° NE 21:15:21 30° NE
MetOp-B 4.4 21:20:39 61° N 21:20:39 61° N 21:25:09 10° N
Cosmos 1809 Rocket 4.4 21:20:39 70° NE 21:20:39 70° NE 21:26:11 10° NNE
BREEZE-M DEB (TANK) 3.6 21:14:54 10° WSW 21:21:11 51° WSW 21:21:11 51° WSW
Meteor 1-21 Rocket 4.4 21:18:58 10° NNW 21:24:42 66° W 21:25:08 63° WSW
COSMOS 2406 4.2 21:27:03 10° SW 21:32:29 44° WNW 21:38:00 10° NNE
Cosmos 1656 4.4 21:29:18 10° NNW 21:33:34 46° N 21:33:34 46° N
Cosmos 2341 Rocket 4.4 21:34:12 41° SW 21:36:14 59° WNW 21:42:23 10° N
SL-16 R/B 4.5 21:33:38 10° NNE 21:35:35 13° NNE 21:35:35 13° NNE
H-2A R/B 3.3 21:42:16 32° N 21:42:16 32° N 21:45:00 10° N
ERS-1 Rocket 4.1 21:51:22 40° NW 21:51:22 40° NW 21:54:54 10° NNW
Terra 4.1 21:53:43 17° N 21:53:43 17° N 21:54:55 10° N
Cosmos 2369 4.4 21:46:02 10° NNW 21:50:09 50° NNW 21:50:09 50° NNW
ARGOS 4.1 21:57:13 44° NW 21:57:13 44° NW 22:01:06 10° NNW
ATLAS 2AS CENTAUR R/B 3.2 22:19:04 10° NW 22:25:45 64° NW 22:25:45 64° NW
Cosmos 2322 Rocket 4.4 22:41:41 10° N 22:43:36 20° N 22:43:36 20° N
USA 267 4.3 22:55:44 40° NNW 22:55:44 40° NNW 22:59:47 10° NW
Cosmos 1980 Rocket 4.3 22:54:32 10° NNW 22:56:29 22° NNW 22:56:29 22° NNW
